| time (UTC) | temp F | wind direction | speed knots | gust knots | rain 1hr in | rain 24hr in | rain mn in | humidity % | barometer mb |
| 20260504130558 | 61 | 145 | 0.0 | 0.9 | 0.00 | 0.00 | 0.00 | 74 | 1018.6 |
| 20260504120104 | 49 | 0 | 0.0 | 0.0 | 0.00 | 0.00 | 0.00 | 95 | 1018.3 |
| 20260504110559 | 46 | 0 | 0.0 | 0.0 | 0.00 | 0.00 | 0.00 | 94 | 1018.2 |
| 20260504100557 | 48 | 0 | 0.0 | 0.0 | 0.00 | 0.00 | 0.00 | 95 | 1018.1 |
| 20260504081557 | 49 | 148 | 0.0 | 0.0 | 0.00 | 0.00 | 0.00 | 92 | 1018.2 |
| 20260504081101 | 49 | 0 | 0.0 | 0.0 | 0.00 | 0.00 | 0.00 | 92 | 1018.4 |
| 20260504080557 | 49 | 0 | 0.0 | 0.0 | 0.00 | 0.00 | 0.00 | 92 | 1018.4 |
| 20260504050558 | 53 | 0 | 0.0 | 0.0 | 0.00 | 0.00 | 0.00 | 82 | 1019.6 |
| 20260504045557 | 54 | 0 | 0.0 | 0.0 | 0.00 | 0.00 | 0.00 | 79 | 1019.5 |
| 20260504045058 | 54 | 0 | 0.0 | 0.0 | 0.00 | 0.00 | 0.00 | 82 | 1019.7 |
| 20260504044603 | 54 | 0 | 0.0 | 0.0 | 0.00 | 0.00 | 0.00 | 81 | 1019.6 |
| 20260504044100 | 54 | 0 | 0.0 | 0.0 | 0.00 | 0.00 | 0.00 | 81 | 1019.5 |
| 20260504043600 | 54 | 0 | 0.0 | 0.0 | 0.00 | 0.00 | 0.00 | 80 | 1019.5 |
| 20260504043101 | 54 | 0 | 0.0 | 0.0 | 0.00 | 0.00 | 0.00 | 82 | 1019.8 |
| 20260504042600 | 55 | 0 | 0.0 | 0.0 | 0.00 | 0.00 | 0.00 | 86 | 1019.8 |
| 20260504042102 | 55 | 0 | 0.0 | 0.0 | 0.00 | 0.00 | 0.00 | 80 | 1019.8 |
| 20260504041556 | 55 | 0 | 0.0 | 0.0 | 0.00 | 0.00 | 0.00 | 79 | 1019.8 |
| 20260504041059 | 55 | 0 | 0.0 | 0.0 | 0.00 | 0.00 | 0.00 | 76 | 1020.0 |
| 20260504040559 | 55 | 0 | 0.0 | 0.0 | 0.00 | 0.00 | 0.00 | 76 | 1019.9 |
| 20260504040106 | 55 | 0 | 0.0 | 0.0 | 0.00 | 0.00 | 0.00 | 76 | 1019.8 |
| 20260504035557 | 55 | 0 | 0.0 | 0.0 | 0.00 | 0.00 | 0.00 | 74 | 1019.9 |
| 20260504035058 | 55 | 0 | 0.0 | 0.0 | 0.00 | 0.00 | 0.00 | 72 | 1019.8 |
| 20260504034616 | 55 | 0 | 0.0 | 0.0 | 0.00 | 0.00 | 0.00 | 81 | 1019.8 |
| 20260504034058 | 55 | 0 | 0.0 | 0.0 | 0.00 | 0.00 | 0.00 | 81 | 1019.9 |
| 20260504033602 | 55 | 0 | 0.0 | 0.0 | 0.00 | 0.00 | 0.00 | 73 | 1019.9 |
| 20260504033127 | 55 | 0 | 0.0 | 0.0 | 0.00 | 0.00 | 0.00 | 75 | 1019.9 |
| 20260504032600 | 56 | 0 | 0.0 | 0.0 | 0.00 | 0.00 | 0.00 | 78 | 1019.9 |
| 20260504032100 | 56 | 0 | 0.0 | 0.0 | 0.00 | 0.00 | 0.00 | 77 | 1019.9 |
| 20260504031558 | 56 | 0 | 0.0 | 0.0 | 0.00 | 0.00 | 0.00 | 79 | 1019.8 |
| 20260504031058 | 56 | 0 | 0.0 | 0.0 | 0.00 | 0.00 | 0.00 | 76 | 1019.8 |
| 20260504030557 | 56 | 0 | 0.0 | 0.0 | 0.00 | 0.00 | 0.00 | 75 | 1019.9 |
| 20260504030104 | 56 | 0 | 0.0 | 0.0 | 0.00 | 0.00 | 0.00 | 77 | 1019.9 |
| 20260504025558 | 56 | 0 | 0.0 | 0.0 | 0.00 | 0.00 | 0.00 | 75 | 1019.8 |
| 20260504025058 | 56 | 0 | 0.0 | 0.0 | 0.00 | 0.00 | 0.00 | 77 | 1019.8 |
| 20260504024558 | 56 | 0 | 0.0 | 0.0 | 0.00 | 0.00 | 0.00 | 77 | 1019.6 |
| 20260504024102 | 57 | 0 | 0.0 | 0.0 | 0.00 | 0.00 | 0.00 | 79 | 1019.6 |
| 20260504023558 | 57 | 0 | 0.0 | 0.0 | 0.00 | 0.00 | 0.00 | 80 | 1019.5 |
| 20260504023105 | 57 | 0 | 0.0 | 0.0 | 0.00 | 0.00 | 0.00 | 76 | 1019.6 |
| 20260504022558 | 57 | 0 | 0.0 | 0.0 | 0.00 | 0.00 | 0.00 | 71 | 1019.7 |
| 20260504022100 | 57 | 0 | 0.0 | 0.0 | 0.00 | 0.00 | 0.00 | 69 | 1019.6 |
| 20260504021557 | 57 | 0 | 0.0 | 0.0 | 0.00 | 0.00 | 0.00 | 73 | 1019.6 |
| 20260504021058 | 57 | 0 | 0.0 | 0.0 | 0.00 | 0.00 | 0.00 | 72 | 1019.6 |
| 20260504020558 | 57 | 0 | 0.0 | 0.0 | 0.00 | 0.00 | 0.00 | 72 | 1019.7 |
| 20260504020100 | 57 | 0 | 0.0 | 0.0 | 0.00 | 0.00 | 0.00 | 73 | 1019.5 |
| 20260504015558 | 58 | 0 | 0.0 | 0.0 | 0.00 | 0.00 | 0.00 | 71 | 1019.5 |
| 20260504015101 | 58 | 0 | 0.0 | 0.0 | 0.00 | 0.00 | 0.00 | 71 | 1019.3 |
| 20260504014557 | 58 | 0 | 0.0 | 0.0 | 0.00 | 0.00 | 0.00 | 72 | 1019.2 |
| 20260504014057 | 58 | 0 | 0.0 | 0.0 | 0.00 | 0.00 | 0.00 | 74 | 1019.2 |
| 20260504013557 | 59 | 0 | 0.0 | 0.0 | 0.00 | 0.00 | 0.00 | 79 | 1019.1 |
| 20260504013109 | 59 | 0 | 0.0 | 0.0 | 0.00 | 0.00 | 0.00 | 78 | 1019.1 |
| 20260504012601 | 59 | 0 | 0.0 | 0.0 | 0.00 | 0.00 | 0.00 | 75 | 1018.9 |
| 20260504012100 | 60 | 0 | 0.0 | 0.0 | 0.00 | 0.00 | 0.00 | 75 | 1018.9 |
| 20260504011556 | 60 | 0 | 0.0 | 0.0 | 0.00 | 0.00 | 0.00 | 75 | 1018.8 |
| 20260504011057 | 60 | 0 | 0.0 | 0.0 | 0.00 | 0.00 | 0.00 | 67 | 1018.9 |
| 20260504010558 | 60 | 0 | 0.0 | 0.0 | 0.00 | 0.00 | 0.00 | 67 | 1019.0 |
| 20260504010113 | 61 | 0 | 0.0 | 0.0 | 0.00 | 0.00 | 0.00 | 71 | 1018.9 |
| 20260504005601 | 61 | 0 | 0.0 | 0.0 | 0.00 | 0.00 | 0.00 | 68 | 1018.9 |
| 20260504005058 | 62 | 0 | 0.0 | 0.0 | 0.00 | 0.00 | 0.00 | 68 | 1018.9 |
| 20260504004624 | 62 | 0 | 0.0 | 0.0 | 0.00 | 0.00 | 0.00 | 67 | 1018.6 |
| 20260504004059 | 63 | 0 | 0.0 | 0.0 | 0.00 | 0.00 | 0.00 | 63 | 1018.5 |
| 20260504003601 | 63 | 0 | 0.0 | 0.0 | 0.00 | 0.00 | 0.00 | 63 | 1018.4 |
| 20260504003056 | 64 | 0 | 0.0 | 0.0 | 0.00 | 0.00 | 0.00 | 62 | 1018.5 |
| 20260504002558 | 65 | 0 | 0.0 | 0.0 | 0.00 | 0.00 | 0.00 | 64 | 1018.4 |
| 20260504002058 | 66 | 0 | 0.0 | 0.0 | 0.00 | 0.00 | 0.00 | 61 | 1018.3 |
| 20260504001612 | 66 | 0 | 0.0 | 0.0 | 0.00 | 0.00 | 0.00 | 55 | 1018.3 |
| 20260504001058 | 67 | 0 | 0.0 | 0.0 | 0.00 | 0.00 | 0.00 | 55 | 1018.3 |
| 20260504000558 | 68 | 0 | 0.0 | 0.0 | 0.00 | 0.00 | 0.00 | 50 | 1018.2 |
| 20260504000059 | 69 | 0 | 0.0 | 0.9 | 0.00 | 0.00 | 0.00 | 49 | 1018.1 |
| 20260503235559 | 70 | 0 | 0.0 | 0.9 | 0.00 | 0.00 | 0.00 | 47 | 1018.2 |
| 20260503235059 | 70 | 0 | 0.0 | 0.9 | 0.00 | 0.00 | 0.00 | 47 | 1018.2 |
| 20260503234557 | 70 | 287 | 0.0 | 0.9 | 0.00 | 0.00 | 0.00 | 46 | 1018.2 |
| 20260503234059 | 70 | 0 | 0.0 | 1.7 | 0.00 | 0.00 | 0.00 | 46 | 1018.1 |
| 20260503233559 | 71 | 0 | 0.0 | 2.6 | 0.00 | 0.00 | 0.00 | 42 | 1018.1 |
| 20260503233058 | 71 | 350 | 0.0 | 2.6 | 0.00 | 0.00 | 0.00 | 44 | 1018.2 |
| 20260503232559 | 72 | 343 | 0.0 | 0.9 | 0.00 | 0.00 | 0.00 | 44 | 1018.2 |
| 20260503232058 | 72 | 8 | 0.0 | 1.7 | 0.00 | 0.00 | 0.00 | 38 | 1018.3 |
| 20260503231558 | 72 | 0 | 0.0 | 1.7 | 0.00 | 0.00 | 0.00 | 44 | 1018.3 |
| 20260503231058 | 73 | 0 | 0.0 | 1.7 | 0.00 | 0.00 | 0.00 | 37 | 1018.4 |
| 20260503230559 | 74 | 302 | 0.0 | 1.7 | 0.00 | 0.00 | 0.00 | 37 | 1018.5 |
| 20260503225559 | 74 | 3 | 0.9 | 2.6 | 0.00 | 0.00 | 0.00 | 41 | 1018.3 |
| 20260503225059 | 74 | 4 | 0.9 | 2.6 | 0.00 | 0.00 | 0.00 | 42 | 1018.4 |
| 20260503224600 | 74 | 49 | 0.9 | 2.6 | 0.00 | 0.00 | 0.00 | 41 | 1018.3 |
| 20260503224100 | 74 | 340 | 0.9 | 1.7 | 0.00 | 0.00 | 0.00 | 40 | 1018.2 |
| 20260503223600 | 75 | 6 | 0.0 | 1.7 | 0.00 | 0.00 | 0.00 | 40 | 1018.2 |
| 20260503223103 | 74 | 49 | 0.0 | 1.7 | 0.00 | 0.00 | 0.00 | 41 | 1018.3 |
| 20260503222559 | 74 | 62 | 0.9 | 2.6 | 0.00 | 0.00 | 0.00 | 40 | 1018.2 |
| 20260503222058 | 74 | 357 | 0.9 | 2.6 | 0.00 | 0.00 | 0.00 | 40 | 1018.2 |
| 20260503221602 | 75 | 356 | 0.9 | 3.5 | 0.00 | 0.00 | 0.00 | 40 | 1018.2 |
| 20260503221059 | 75 | 318 | 0.0 | 3.5 | 0.00 | 0.00 | 0.00 | 41 | 1018.2 |
| 20260503220559 | 74 | 12 | 1.7 | 3.5 | 0.00 | 0.00 | 0.00 | 35 | 1018.2 |
| 20260503220059 | 75 | 59 | 0.9 | 2.6 | 0.00 | 0.00 | 0.00 | 41 | 1018.3 |
| 20260503215557 | 75 | 23 | 0.9 | 3.5 | 0.00 | 0.00 | 0.00 | 41 | 1018.4 |
| 20260503215058 | 75 | 334 | 0.9 | 3.5 | 0.00 | 0.00 | 0.00 | 40 | 1018.4 |
| 20260503214601 | 75 | 287 | 0.9 | 3.5 | 0.00 | 0.00 | 0.00 | 39 | 1018.4 |
| 20260503214100 | 75 | 313 | 0.9 | 3.5 | 0.00 | 0.00 | 0.00 | 39 | 1018.5 |
| 20260503213558 | 75 | 59 | 0.9 | 3.5 | 0.00 | 0.00 | 0.00 | 37 | 1018.5 |
| 20260503213108 | 75 | 2 | 0.9 | 3.5 | 0.00 | 0.00 | 0.00 | 39 | 1018.6 |
| 20260503212558 | 75 | 360 | 0.9 | 3.5 | 0.00 | 0.00 | 0.00 | 35 | 1018.6 |
| 20260503212058 | 75 | 328 | 0.9 | 2.6 | 0.00 | 0.00 | 0.00 | 41 | 1018.7 |
| 20260503211559 | 75 | 348 | 0.9 | 2.6 | 0.00 | 0.00 | 0.00 | 39 | 1018.8 |
| 20260503211057 | 75 | 11 | 0.9 | 4.3 | 0.00 | 0.00 | 0.00 | 42 | 1018.8 |
| 20260503210603 | 75 | 351 | 0.9 | 4.3 | 0.00 | 0.00 | 0.00 | 42 | 1018.9 |
| 20260503210112 | 74 | 0 | 0.9 | 4.3 | 0.00 | 0.00 | 0.00 | 41 | 1018.9 |
| 20260503205559 | 75 | 352 | 2.6 | 4.3 | 0.00 | 0.00 | 0.00 | 39 | 1018.9 |
| 20260503205059 | 75 | 55 | 0.0 | 7.8 | 0.00 | 0.00 | 0.00 | 44 | 1018.9 |
| 20260503204611 | 74 | 91 | 1.7 | 7.8 | 0.00 | 0.00 | 0.00 | 41 | 1019.0 |
| 20260503204058 | 74 | 273 | 2.6 | 7.8 | 0.00 | 0.00 | 0.00 | 39 | 1019.1 |
| 20260503203603 | 75 | 338 | 1.7 | 4.3 | 0.00 | 0.00 | 0.00 | 40 | 1019.0 |
| 20260503203106 | 75 | 309 | 1.7 | 5.2 | 0.00 | 0.00 | 0.00 | 40 | 1019.1 |
| 20260503202600 | 75 | 8 | 1.7 | 5.2 | 0.00 | 0.00 | 0.00 | 40 | 1019.1 |
| 20260503202058 | 74 | 354 | 1.7 | 5.2 | 0.00 | 0.00 | 0.00 | 43 | 1019.2 |
| 20260503201604 | 74 | 0 | 0.9 | 5.2 | 0.00 | 0.00 | 0.00 | 36 | 1019.4 |
| 20260503201058 | 74 | 246 | 1.7 | 4.3 | 0.00 | 0.00 | 0.00 | 39 | 1019.5 |
| 20260503200558 | 74 | 347 | 1.7 | 4.3 | 0.00 | 0.00 | 0.00 | 40 | 1019.5 |
| 20260503200101 | 74 | 312 | 2.6 | 7.0 | 0.00 | 0.00 | 0.00 | 37 | 1019.6 |
| 20260503195555 | 75 | 301 | 1.7 | 7.0 | 0.00 | 0.00 | 0.00 | 35 | 1019.7 |
| 20260503195057 | 75 | 269 | 0.9 | 7.0 | 0.00 | 0.00 | 0.00 | 40 | 1019.7 |
| 20260503194556 | 75 | 43 | 0.9 | 4.3 | 0.00 | 0.00 | 0.00 | 39 | 1019.8 |
| 20260503194058 | 75 | 15 | 0.9 | 3.5 | 0.00 | 0.00 | 0.00 | 44 | 1019.9 |
| 20260503193558 | 75 | 345 | 0.9 | 2.6 | 0.00 | 0.00 | 0.00 | 41 | 1020.1 |
| 20260503193102 | 74 | 30 | 0.9 | 5.2 | 0.00 | 0.00 | 0.00 | 43 | 1020.1 |
| 20260503192558 | 74 | 321 | 1.7 | 5.2 | 0.00 | 0.00 | 0.00 | 42 | 1020.2 |
| 20260503192057 | 74 | 293 | 1.7 | 4.3 | 0.00 | 0.00 | 0.00 | 40 | 1020.2 |
| 20260503191620 | 74 | 245 | 1.7 | 5.2 | 0.00 | 0.00 | 0.00 | 42 | 1020.2 |
| 20260503191055 | 74 | 356 | 1.7 | 5.2 | 0.00 | 0.00 | 0.00 | 44 | 1020.2 |
| 20260503190556 | 74 | 299 | 0.9 | 4.3 | 0.00 | 0.00 | 0.00 | 39 | 1020.3 |
| 20260503190056 | 73 | 321 | 1.7 | 7.0 | 0.00 | 0.00 | 0.00 | 41 | 1020.4 |
| 20260503185601 | 73 | 352 | 1.7 | 7.0 | 0.00 | 0.00 | 0.00 | 41 | 1020.5 |
| 20260503185057 | 73 | 11 | 2.6 | 7.0 | 0.00 | 0.00 | 0.00 | 41 | 1020.5 |
| 20260503184559 | 74 | 325 | 0.9 | 3.5 | 0.00 | 0.00 | 0.00 | 39 | 1020.6 |
| 20260503184103 | 74 | 40 | 0.9 | 5.2 | 0.00 | 0.00 | 0.00 | 39 | 1020.5 |
| 20260503183558 | 74 | 340 | 1.7 | 5.2 | 0.00 | 0.00 | 0.00 | 40 | 1020.6 |
| 20260503183112 | 74 | 357 | 0.9 | 3.5 | 0.00 | 0.00 | 0.00 | 39 | 1020.6 |
| 20260503182555 | 74 | 51 | 0.9 | 5.2 | 0.00 | 0.00 | 0.00 | 41 | 1020.5 |
| 20260503182057 | 74 | 341 | 1.7 | 5.2 | 0.00 | 0.00 | 0.00 | 39 | 1020.6 |
| 20260503181602 | 73 | 345 | 1.7 | 3.5 | 0.00 | 0.00 | 0.00 | 42 | 1020.5 |
| 20260503181058 | 73 | 40 | 0.9 | 3.5 | 0.00 | 0.00 | 0.00 | 44 | 1020.5 |
| 20260503180559 | 73 | 352 | 1.7 | 3.5 | 0.00 | 0.00 | 0.00 | 44 | 1020.6 |
| 20260503180056 | 73 | 45 | 0.9 | 3.5 | 0.00 | 0.00 | 0.00 | 40 | 1020.6 |
| 20260503175557 | 73 | 282 | 1.7 | 3.5 | 0.00 | 0.00 | 0.00 | 40 | 1020.7 |
| 20260503175056 | 72 | 298 | 1.7 | 3.5 | 0.00 | 0.00 | 0.00 | 41 | 1020.8 |
| 20260503174604 | 72 | 269 | 1.7 | 3.5 | 0.00 | 0.00 | 0.00 | 45 | 1021.0 |
| 20260503174057 | 72 | 331 | 0.9 | 4.3 | 0.00 | 0.00 | 0.00 | 46 | 1021.0 |
| 20260503173557 | 71 | 30 | 1.7 | 4.3 | 0.00 | 0.00 | 0.00 | 44 | 1021.0 |
| 20260503173117 | 71 | 0 | 0.9 | 4.3 | 0.00 | 0.00 | 0.00 | 44 | 1021.2 |
| 20260503172559 | 72 | 323 | 0.9 | 4.3 | 0.00 | 0.00 | 0.00 | 45 | 1021.4 |
| 20260503172057 | 71 | 35 | 1.7 | 3.5 | 0.00 | 0.00 | 0.00 | 43 | 1021.4 |
| 20260503171600 | 71 | 294 | 1.7 | 3.5 | 0.00 | 0.00 | 0.00 | 41 | 1021.4 |
| 20260503171058 | 71 | 117 | 1.7 | 3.5 | 0.00 | 0.00 | 0.00 | 43 | 1021.5 |
| 20260503170557 | 71 | 42 | 0.9 | 3.5 | 0.00 | 0.00 | 0.00 | 41 | 1021.7 |
| 20260503150601 | 65 | 106 | 0.0 | 1.7 | 0.00 | 0.00 | 0.00 | 56 | 1022.4 |